TimeEST,TemperatureF,Dew PointF,Humidity,Sea Level PressureIn,VisibilityMPH,Wind Direction,Wind SpeedMPH,Gust SpeedMPH,PrecipitationIn,Events,Conditions,WindDirDegrees,DateUTC
12:53 AM,21.9,3.0,44,30.26,10.0,WNW,11.5,19.6,N/A,,Clear,300,2013-02-18 05:53:00
1:53 AM,21.0,3.0,46,30.26,10.0,NW,9.2,-,N/A,,Clear,310,2013-02-18 06:53:00
2:53 AM,21.0,3.0,46,30.27,10.0,WNW,12.7,-,N/A,,Clear,300,2013-02-18 07:53:00
3:53 AM,19.9,3.0,48,30.27,10.0,WNW,9.2,-,N/A,,Clear,300,2013-02-18 08:53:00
4:53 AM,19.9,3.0,48,30.30,10.0,WNW,5.8,-,N/A,,Clear,300,2013-02-18 09:53:00
5:53 AM,18.0,3.9,54,30.33,10.0,West,5.8,-,N/A,,Clear,270,2013-02-18 10:53:00
6:53 AM,18.0,5.0,57,30.35,10.0,Calm,Calm,-,N/A,,Clear,0,2013-02-18 11:53:00
7:53 AM,19.0,7.0,59,30.37,10.0,Calm,Calm,-,N/A,,Clear,0,2013-02-18 12:53:00
8:53 AM,24.1,6.1,46,30.38,10.0,WSW,6.9,-,N/A,,Clear,250,2013-02-18 13:53:00
9:53 AM,26.1,5.0,41,30.37,10.0,WSW,4.6,-,N/A,,Clear,250,2013-02-18 14:53:00
10:53 AM,30.9,5.0,33,30.35,10.0,West,6.9,-,N/A,,Clear,270,2013-02-18 15:53:00
11:53 AM,34.0,6.1,31,30.32,10.0,Variable,3.5,-,N/A,,Clear,0,2013-02-18 16:53:00
12:53 PM,37.9,7.0,28,30.29,10.0,Variable,6.9,-,N/A,,Clear,0,2013-02-18 17:53:00
1:53 PM,39.9,8.1,27,30.25,10.0,SSE,8.1,-,N/A,,Clear,150,2013-02-18 18:53:00
2:53 PM,41.0,8.1,26,30.23,10.0,SSE,6.9,-,N/A,,Clear,160,2013-02-18 19:53:00
3:53 PM,42.1,8.1,25,30.20,10.0,South,5.8,-,N/A,,Clear,180,2013-02-18 20:53:00
4:53 PM,41.0,10.0,28,30.21,10.0,SSE,6.9,-,N/A,,Clear,150,2013-02-18 21:53:00
5:53 PM,39.0,10.9,32,30.20,10.0,SE,4.6,-,N/A,,Clear,130,2013-02-18 22:53:00
6:53 PM,36.0,10.9,36,30.20,10.0,SE,4.6,-,N/A,,Clear,140,2013-02-18 23:53:00
7:53 PM,36.0,10.9,36,30.17,10.0,SSE,5.8,-,N/A,,Clear,160,2013-02-19 00:53:00
8:53 PM,36.0,12.0,37,30.16,10.0,Calm,Calm,-,N/A,,Clear,0,2013-02-19 01:53:00
9:53 PM,32.0,14.0,48,30.14,10.0,Calm,Calm,-,N/A,,Clear,0,2013-02-19 02:53:00
10:53 PM,28.9,12.9,51,30.13,10.0,WSW,3.5,-,N/A,,Clear,250,2013-02-19 03:53:00
11:53 PM,27.0,15.1,61,30.11,10.0,Calm,Calm,-,N/A,,Clear,0,2013-02-19 04:53:00